Torna al catalogo

ONEWEB-0568

AttivoComunicazioniPO
NORAD 56062·PAYLOAD·🇬🇧 United Kingdom

Lanciato Mar 26, 2023 da Satish Dhawan Space Centre

Loading…

Prossimi Passaggi (prossime 24 ore)

TLE

AggiornatoSource: CelesTrak SupGP

Epoca: Sep 14, 2026, 13:22 UTC

1 56062C 23043S   26257.55708750 -.00002162  00000+0 -56627-2 0  2577
2 56062  87.9155 211.0253 0001921  85.9373  17.1625 13.16598919    13

Traccia ONEWEB-0568 in tempo reale con AllMySat

Download on the App Store